TimeCST,TemperatureF,Dew PointF,Humidity,Sea Level PressureIn,VisibilityMPH,Wind Direction,Wind SpeedMPH,Gust SpeedMPH,PrecipitationIn,Events,Conditions,WindDirDegrees,DateUTC
12:15 AM,10.8,1.6,67,30.16,10.0,Calm,Calm,-,N/A,,Clear,0,2013-02-17 06:15:00
12:35 AM,11.3,0.7,62,30.16,10.0,Calm,Calm,-,N/A,,Clear,0,2013-02-17 06:35:00
12:55 AM,11.3,-0.0,60,30.16,10.0,North,3.5,-,N/A,,Clear,360,2013-02-17 06:55:00
1:15 AM,11.3,-0.4,59,30.15,10.0,North,3.5,-,N/A,,Clear,10,2013-02-17 07:15:00
1:35 AM,10.6,1.0,65,30.16,10.0,Calm,Calm,-,N/A,,Clear,0,2013-02-17 07:35:00
1:55 AM,10.0,1.9,70,30.16,10.0,Calm,Calm,-,N/A,,Clear,0,2013-02-17 07:55:00
2:15 AM,10.6,-0.0,62,30.16,10.0,Calm,Calm,-,N/A,,Clear,0,2013-02-17 08:15:00
2:35 AM,10.0,-0.0,64,30.16,10.0,Calm,Calm,-,N/A,,Clear,0,2013-02-17 08:35:00
2:55 AM,9.1,0.7,69,30.16,10.0,Calm,Calm,-,N/A,,Clear,0,2013-02-17 08:55:00
3:15 AM,10.0,0.3,65,30.15,10.0,Calm,Calm,-,N/A,,Clear,0,2013-02-17 09:15:00
3:35 AM,8.4,1.4,73,30.15,10.0,Calm,Calm,-,N/A,,Clear,0,2013-02-17 09:35:00
3:55 AM,9.0,1.0,70,30.16,10.0,WSW,3.5,-,N/A,,Clear,240,2013-02-17 09:55:00
4:15 AM,8.6,1.8,74,30.16,10.0,Calm,Calm,-,N/A,,Clear,0,2013-02-17 10:15:00
4:35 AM,8.8,2.8,77,30.16,10.0,Calm,Calm,-,N/A,,Clear,0,2013-02-17 10:35:00
4:55 AM,8.2,2.3,77,30.16,10.0,Calm,Calm,-,N/A,,Clear,0,2013-02-17 10:55:00
5:15 AM,8.2,2.7,78,30.17,10.0,Calm,Calm,-,N/A,,Clear,0,2013-02-17 11:15:00
5:35 AM,9.0,1.6,72,30.17,10.0,Calm,Calm,-,N/A,,Clear,0,2013-02-17 11:35:00
5:55 AM,9.0,0.7,69,30.17,10.0,Calm,Calm,-,N/A,,Clear,0,2013-02-17 11:55:00
6:15 AM,8.2,1.8,75,30.17,10.0,Calm,Calm,-,N/A,,Clear,0,2013-02-17 12:15:00
6:35 AM,7.2,0.9,75,30.17,10.0,Calm,Calm,-,N/A,,Clear,0,2013-02-17 12:35:00
6:55 AM,8.1,1.8,75,30.17,10.0,Calm,Calm,-,N/A,,Clear,0,2013-02-17 12:55:00
7:15 AM,7.9,1.6,75,30.18,10.0,Calm,Calm,-,N/A,,Clear,0,2013-02-17 13:15:00
7:35 AM,9.7,3.4,76,30.18,10.0,Calm,Calm,-,N/A,,Clear,0,2013-02-17 13:35:00
7:55 AM,12.0,3.4,68,30.18,10.0,Calm,Calm,-,N/A,,Clear,0,2013-02-17 13:55:00
8:15 AM,13.1,2.7,63,30.18,10.0,Calm,Calm,-,N/A,,Clear,0,2013-02-17 14:15:00
8:35 AM,14.0,2.8,61,30.18,10.0,Calm,Calm,-,N/A,,Clear,0,2013-02-17 14:35:00
8:55 AM,14.9,1.4,55,30.18,10.0,Calm,Calm,-,N/A,,Clear,0,2013-02-17 14:55:00
9:15 AM,15.3,1.4,54,30.18,10.0,Calm,Calm,-,N/A,,Clear,0,2013-02-17 15:15:00
9:35 AM,16.2,2.5,55,30.18,10.0,South,4.6,-,N/A,,Clear,190,2013-02-17 15:35:00
9:55 AM,16.5,1.0,51,30.18,10.0,SE,3.5,-,N/A,,Clear,130,2013-02-17 15:55:00
10:15 AM,17.6,2.5,52,30.18,10.0,SSE,5.8,-,N/A,,Clear,150,2013-02-17 16:15:00
10:35 AM,18.1,2.5,51,30.17,10.0,SE,4.6,-,N/A,,Clear,130,2013-02-17 16:35:00
10:55 AM,19.9,4.1,50,30.18,10.0,South,3.5,-,N/A,,Clear,180,2013-02-17 16:55:00
11:15 AM,20.1,4.5,51,30.18,10.0,South,4.6,-,N/A,,Clear,180,2013-02-17 17:15:00
11:35 AM,21.2,4.3,48,30.17,10.0,South,6.9,-,N/A,,Clear,170,2013-02-17 17:35:00
11:55 AM,22.6,6.3,50,30.17,10.0,South,9.2,-,N/A,,Clear,180,2013-02-17 17:55:00
12:15 PM,22.5,5.4,48,30.17,10.0,SSE,6.9,-,N/A,,Clear,160,2013-02-17 18:15:00
12:55 PM,24.4,7.3,48,30.14,10.0,SSE,6.9,-,N/A,,Clear,160,2013-02-17 18:55:00
1:15 PM,24.6,7.3,48,30.14,10.0,South,8.1,-,N/A,,Clear,180,2013-02-17 19:15:00
1:35 PM,25.5,7.0,45,30.13,10.0,SSE,8.1,16.1,N/A,,Clear,150,2013-02-17 19:35:00
1:55 PM,26.2,7.3,45,30.12,10.0,South,10.4,-,N/A,,Clear,170,2013-02-17 19:55:00
2:15 PM,27.0,7.7,44,30.11,10.0,SSE,10.4,-,N/A,,Clear,160,2013-02-17 20:15:00
2:35 PM,27.9,10.2,48,30.09,10.0,SSE,11.5,-,N/A,,Clear,160,2013-02-17 20:35:00
2:55 PM,28.2,9.5,45,30.09,10.0,SE,9.2,-,N/A,,Clear,140,2013-02-17 20:55:00
3:15 PM,27.9,10.8,49,30.08,10.0,SSE,10.4,-,N/A,,Clear,150,2013-02-17 21:15:00
3:35 PM,27.9,10.6,48,30.07,10.0,SE,13.8,-,N/A,,Clear,140,2013-02-17 21:35:00
3:55 PM,27.9,10.8,49,30.07,10.0,SSE,10.4,-,N/A,,Clear,150,2013-02-17 21:55:00
4:15 PM,27.7,12.0,52,30.07,10.0,SSE,13.8,-,N/A,,Clear,150,2013-02-17 22:15:00
4:35 PM,27.3,12.4,53,30.06,10.0,SSE,13.8,-,N/A,,Clear,150,2013-02-17 22:35:00
4:55 PM,27.0,12.9,56,30.07,10.0,SSE,13.8,-,N/A,,Clear,150,2013-02-17 22:55:00
5:15 PM,26.6,13.8,59,30.06,10.0,SE,11.5,-,N/A,,Clear,140,2013-02-17 23:15:00
5:35 PM,26.2,12.9,57,30.05,10.0,SE,11.5,-,N/A,,Clear,140,2013-02-17 23:35:00
5:55 PM,25.5,14.0,62,30.05,10.0,SE,10.4,-,N/A,,Clear,140,2013-02-17 23:55:00
6:15 PM,25.5,14.5,63,30.04,10.0,ESE,11.5,-,N/A,,Clear,120,2013-02-18 00:15:00
6:35 PM,26.6,14.0,59,30.04,10.0,SE,11.5,-,N/A,,Clear,140,2013-02-18 00:35:00
6:55 PM,25.7,15.6,66,30.04,10.0,SE,10.4,-,N/A,,Clear,130,2013-02-18 00:55:00
7:15 PM,25.7,15.8,66,30.03,10.0,SE,10.4,-,N/A,,Clear,130,2013-02-18 01:15:00
7:35 PM,25.5,15.6,66,30.02,10.0,ESE,12.7,-,N/A,,Clear,120,2013-02-18 01:35:00
7:55 PM,25.5,15.8,67,30.01,10.0,SE,12.7,-,N/A,,Clear,130,2013-02-18 01:55:00
8:15 PM,25.3,16.0,68,30.01,10.0,SE,12.7,18.4,N/A,,Clear,130,2013-02-18 02:15:00
8:35 PM,25.3,15.8,67,30.01,10.0,SE,12.7,18.4,N/A,,Clear,130,2013-02-18 02:35:00
8:55 PM,25.5,16.3,68,30.00,10.0,SE,15.0,19.6,N/A,,Clear,130,2013-02-18 02:55:00
9:15 PM,25.7,17.1,70,30.01,10.0,SE,13.8,-,N/A,,Clear,140,2013-02-18 03:15:00
9:35 PM,26.4,17.6,69,30.01,10.0,SE,16.1,-,N/A,,Clear,140,2013-02-18 03:35:00
9:55 PM,26.2,17.6,70,29.99,10.0,SE,16.1,20.7,N/A,,Clear,140,2013-02-18 03:55:00
10:15 PM,26.2,17.8,70,29.99,10.0,SE,15.0,21.9,N/A,,Clear,140,2013-02-18 04:15:00
10:35 PM,26.2,17.6,70,29.98,10.0,SE,13.8,-,N/A,,Clear,140,2013-02-18 04:35:00
10:55 PM,26.1,18.0,71,29.97,10.0,SE,15.0,-,N/A,,Clear,140,2013-02-18 04:55:00
11:15 PM,26.2,18.0,71,29.96,10.0,SE,15.0,20.7,N/A,,Clear,140,2013-02-18 05:15:00
11:35 PM,26.2,18.0,71,29.95,10.0,SE,16.1,20.7,N/A,,Clear,140,2013-02-18 05:35:00
11:55 PM,26.6,18.1,70,29.94,10.0,SE,15.0,-,N/A,,Clear,140,2013-02-18 05:55:00